RH
94 94 96 93 90 85 75 61 51 48 44 39 36 34 33 37 40 41 41 42 46 52 59 64 70 70 64 60 54 48 48 46 40 40 38 37 35 31 33 37 44 46 45
92 94 94 91 87 71 53 47 46 44 39 37 36 32 33 38 41 43 42 43 45 51 56 62 66 68 68 64 54 55 50 45 37 52 60 55 50 38 34 39 38 41 47
91 91 91 87 71 54 44 42 42 40 38 37 32 32 33 35 39 42 42 42 42 50 57 57 61 64 66 65 62 62 63 48 27 46 57 39 43 39 35 37 37 37 40
86 85 84 79 54 42 40 40 40 38 37 33 36 38 37 37 38 40 43 42 42 45 49 56 62 65 68 68 73 75 65 55 31 32 50 61 49 46 35 39 41 48 50
78 78 76 61 44 40 40 40 38 38 35 36 42 44 44 44 41 41 43 41 41 45 47 50 54 58 62 65 74 80 72 63 51 29 35 51 48 45 39 35 46 51 50
71 71 66 47 42 40 39 39 40 39 40 43 47 49 53 50 48 47 47 45 43 46 46 47 48 51 57 65 72 74 74 75 78 55 29 38 42 50 48 50 51 47 48
66 66 53 41 39 39 39 41 42 44 46 48 53 56 56 55 54 58 60 62 60 59 58 57 54 56 59 63 62 66 69 66 71 67 35 32 38 46 44 45 42 36 36
60 55 44 38 38 39 41 42 44 46 47 55 58 59 57 55 56 58 61 60 59 60 60 62 64 64 62 58 54 52 53 56 66 70 45 30 35 41 52 37 32 32 38
54 49 41 37 38 40 42 45 48 48 49 55 56 57 56 55 52 49 48 48 51 50 52 50 47 48 46 45 43 45 36 44 74 72 63 37 35 38 41 33 33 36 34
49 45 40 38 38 39 42 44 47 49 49 50 48 50 53 51 48 46 44 42 44 47 46 44 49 48 43 39 40 37 37 38 72 72 71 53 45 45 41 35 37 37 38
45 41 38 38 39 39 40 43 44 45 44 44 49 56 56 56 57 53 46 42 43 45 43 43 41 42 37 33 35 41 36 34 42 65 69 75 55 44 39 41 41 38 41
42 42 39 38 38 39 40 42 42 42 41 45 53 59 63 62 58 62 58 48 43 43 48 46 39 37 34 30 31 30 38 33 36 41 53 65 76 54 42 45 42 44 42
42 41 38 39 40 41 40 39 39 40 43 45 51 59 60 67 63 62 59 53 43 42 44 43 41 41 40 29 26 25 28 32 32 29 37 51 69 76 53 47 45 48 49
42 39 37 38 39 39 37 37 37 37 42 45 50 55 59 57 56 54 56 48 48 47 47 45 44 46 41 32 31 25 28 29 33 30 31 46 57 80 79 52 48 47 54
41 38 36 36 36 34 35 36 36 36 38 40 44 49 53 51 49 50 51 49 50 53 55 55 55 48 45 40 35 31 26 35 33 31 32 40 51 62 77 81 59 50 50
41 36 37 34 34 32 33 34 35 37 38 40 47 51 52 56 54 56 53 50 56 56 57 51 48 44 46 41 40 33 28 32 33 28 31 37 43 49 63 72 79 70 60
38 36 35 32 32 32 32 32 33 34 39 42 50 50 55 54 54 54 56 52 48 47 48 49 46 38 37 38 40 32 28 36 33 28 26 37 42 44 46 59 64 70 77
37 36 32 32 33 33 32 32 33 33 35 44 51 50 54 54 54 54 55 49 44 42 41 37 37 35 36 37 34 32 33 33 35 32 33 29 33 39 44 45 52 57 60
37 35 32 30 29 28 29 30 32 32 35 42 49 48 52 55 54 62 52 45 42 37 33 35 34 33 32 34 33 30 32 32 43 33 33 33 33 33 35 43 46 45 51
34 33 30 29 30 31 32 30 32 32 40 42 42 47 50 52 55 55 48 41 40 33 32 30 30 33 32 32 27 24 32 35 35 34 33 31 32 33 32 34 41 41 45
33 34 35 33 31 32 31 29 32 37 38 40 40 44 45 46 46 47 45 41 37 33 31 34 39 46 50 37 34 32 33 35 38 37 34 32 28 26 26 26 28 31 40
29 30 32 30 31 30 36 33 32 34 37 39 39 39 39 39 41 42 41 40 34 36 37 46 51 50 47 45 44 40 37 34 34 36 36 33 31 29 26 23 26 31 33
26 27 28 27 26 27 33 35 33 38 38 36 38 39 37 37 41 37 35 33 33 39 48 51 52 49 42 46 48 45 43 38 39 38 37 35 34 32 32 33 31 29 27
21 22 22 23 24 25 31 32 32 32 34 32 30 33 36 36 35 36 32 33 37 49 55 51 49 50 44 48 52 52 52 50 44 42 40 39 38 36 33 32 35 35 35
18 19 20 19 22 24 27 27 29 33 34 33 32 33 36 34 32 32 29 34 45 53 53 49 45 48 45 47 49 48 52 54 57 58 56 50 45 47 45 45 44 46 46
22 18 18 19 19 21 23 26 25 26 29 33 36 37 34 33 32 30 32 40 49 54 50 47 46 48 46 45 50 52 51 52 52 53 55 54 54 53 53 52 51 52 53